Lynchburg, VA

9:41 PM EST on February 09, 2016 (GMT -0500)
Lynchburg Regional-Glenn

Weather History for KLYH - May, 2012

Change the Weather History Date:

Monday, May 7, 2012

  Actual Average Record
Temperature  
Mean Temperature 66 °F 61 °F  
Max Temperature 72 °F 73 °F 95 °F (1940)
Min Temperature 59 °F 48 °F 32 °F (1970)
Degree Days  
Heating Degree Days 0 5  
Month to date heating degree days 0 40  
Since 1 July heating degree days 3482 4363  
Cooling Degree Days 1 1  
Month to date cooling degree days 36 7  
Year to date cooling degree days 65 25  
Growing Degree Days 16 (Base 50)    
Moisture  
Dew Point 56 °F    
Average Humidity 74    
Maximum Humidity 90    
Minimum Humidity 57    
Precipitation  
Precipitation 0.00 in 0.12 in 1.07 in (2013)
Month to date precipitation 0.11 0.78  
Year to date precipitation 13.16 13.74  
Snow  
Snow 0.00 in - - ()
Month to date snowfall 0.0  
Since 1 July snowfall 8.5  
Snow Depth 0.00 in    
Sea Level Pressure  
Sea Level Pressure 30.05 in    
Wind  
Wind Speed 5 mph (SE)    
Max Wind Speed 13 mph    
Max Gust Speed 18 mph    
Visibility 10 miles    
Events      
T = Trace of Precipitation, MM = Missing Value Source: NWS Daily Summary

Daily Weather History Graph

Daily Weather History Graph

Search for Another Location

Airport or City:

Trip Planner

Search our weather history database for the weather conditions in past years. The results will help you decide how hot, cold, wet, or windy it might be!

Date:

Astronomy

May. 07, 2012 Rise Set
Actual Time 6:14 AM EDT 8:12 PM EDT
Civil Twilight 5:46 AM EDT 8:40 PM EDT
Nautical Twilight 5:11 AM EDT 9:15 PM EDT
Astronomical Twilight 4:34 AM EDT 9:53 PM EDT
Moon 10:20 PM EDT (5/7) 7:20 AM EDT (5/7)
Length of Visible Light 14h 54m
Length of Day
13h 57m
Waning Gibbous, 97% of the Moon is Illuminated
May 7
Waning Gibbous
May 12
Last Quarter
May 20
New
May 28
First Quarter
Jun 4
Full

Hourly Weather History & Observations

Time (EDT) Temp. Dew Point Humidity Pressure Visibility Wind Dir Wind Speed Gust Speed Precip Events Conditions
12:54 AM 64.9 °F 59.0 °F 81% 30.07 in 10.0 mi Calm Calm - N/A   Overcast
1:54 AM 64.0 °F 59.0 °F 84% 30.05 in 10.0 mi SE 6.9 mph - N/A   Overcast
2:12 AM 64.4 °F 59.0 °F 83% 30.08 in 10.0 mi SE 6.9 mph - N/A   Overcast
2:24 AM 62.6 °F 59.0 °F 88% 30.07 in 10.0 mi SE 4.6 mph - N/A   Overcast
2:54 AM 63.0 °F 59.0 °F 87% 30.05 in 10.0 mi ESE 4.6 mph - N/A   Overcast
3:54 AM 62.1 °F 57.9 °F 86% 30.04 in 10.0 mi SE 4.6 mph - N/A   Overcast
4:27 AM 62.6 °F 57.2 °F 82% 30.06 in 10.0 mi SSE 4.6 mph - N/A   Overcast
4:36 AM 62.6 °F 59.0 °F 88% 30.06 in 10.0 mi Calm Calm - N/A   Overcast
4:54 AM 62.1 °F 59.0 °F 90% 30.04 in 10.0 mi ESE 4.6 mph - N/A   Overcast
5:54 AM 60.1 °F 55.9 °F 86% 30.03 in 10.0 mi SE 4.6 mph - N/A   Overcast
6:13 AM 60.8 °F 55.4 °F 82% 30.05 in 10.0 mi SE 4.6 mph - N/A   Overcast
6:54 AM 60.1 °F 55.0 °F 83% 30.05 in 10.0 mi SSE 5.8 mph - N/A   Overcast
7:25 AM 60.8 °F 53.6 °F 77% 30.07 in 10.0 mi SSE 6.9 mph - N/A   Overcast
7:54 AM 60.1 °F 54.0 °F 80% 30.06 in 10.0 mi SSE 4.6 mph - N/A   Overcast
8:54 AM 60.1 °F 54.0 °F 80% 30.09 in 10.0 mi ESE 4.6 mph - N/A   Overcast
9:54 AM 60.1 °F 54.0 °F 80% 30.11 in 10.0 mi SSE 3.5 mph - N/A   Overcast
10:54 AM 61.0 °F 54.0 °F 78% 30.11 in 10.0 mi SE 3.5 mph - N/A   Overcast
11:54 AM 63.0 °F 54.0 °F 72% 30.09 in 10.0 mi Variable 4.6 mph - N/A   Overcast
12:54 PM 64.9 °F 54.0 °F 68% 30.09 in 10.0 mi SSE 3.5 mph - N/A   Overcast
1:54 PM 66.9 °F 55.9 °F 68% 30.08 in 10.0 mi Calm Calm - N/A   Overcast
2:21 PM 69.8 °F 55.4 °F 60% 30.09 in 10.0 mi Calm Calm - N/A   Overcast
2:54 PM 70.0 °F 57.0 °F 63% 30.06 in 10.0 mi SE 5.8 mph - N/A   Mostly Cloudy
3:54 PM 71.1 °F 57.0 °F 61% 30.03 in 10.0 mi Variable 5.8 mph - N/A   Mostly Cloudy
4:54 PM 71.1 °F 57.0 °F 61% 30.01 in 10.0 mi Variable 4.6 mph - N/A   Overcast
5:54 PM 71.6 °F 55.4 °F 57% 30.01 in 10.0 mi SE 3.5 mph - N/A   Mostly Cloudy
6:54 PM 71.1 °F 55.9 °F 59% 29.98 in 10.0 mi Calm Calm - N/A   Overcast
7:54 PM 70.0 °F 57.0 °F 63% 29.99 in 10.0 mi Calm Calm - N/A   Overcast
8:54 PM 68.0 °F 57.9 °F 70% 29.99 in 10.0 mi Variable 4.6 mph - N/A   Overcast
9:54 PM 68.0 °F 57.0 °F 68% 30.01 in 10.0 mi SSE 6.9 mph - N/A   Overcast
10:54 PM 66.9 °F 55.9 °F 68% 30.02 in 10.0 mi SSE 6.9 mph - N/A   Overcast
11:54 PM 64.9 °F 55.0 °F 70% 30.01 in 10.0 mi SSE 9.2 mph - N/A   Mostly Cloudy